マクノート彗星

378P/McNaught (2020)

English version
Home page
Updated on April 17, 2020

---------------------------------------------------------------------

・ プロフィール

符号 378P/2019 E2
検出日 2019年3月10日
検出光度 21.9等
検出者 E. Schwab (Egelsbach, Germany), D. Abreu (European Space Agency's Optical Ground Station, Tenerife)

・ 軌道要素

Epoch 2020 Nov. 7.0 TT = JDT 2459160.5
T 2020 Oct. 20.88459 TT                                 MPCW
q   3.3808585            (2000.0)            P               Q
n   0.06112678     Peri.  194.04882     +0.30501112     +0.89476011
a   6.3823661      Node    94.51306     -0.83912872     +0.41445193
e   0.4702813      Incl.   19.09664     -0.45036786     -0.16623461
P  16.12
From 171 observations 2003 May 30-2019 May 9, mean residual 0".6.

・ 光度変化

        10.0 + 5 logΔ + 7.5 log r(t - 1000)

---------------------------------------------------------------------

軌道要素はM.P.E.C. 2019-J142に掲載されたものです。
光度グラフはComet for Windowsで作成したものです。

---------------------------------------------------------------------

Copyright(C) Seiichi Yoshida (comet@aerith.net). All rights reserved.